Tracking 31027 objects as of 19-Jul-2025
HD Live streaming from Space Station
objects crossing your sky now

STARLINK-6181

Track STARLINK-6181 now!
10-day predictions
STARLINK-6181 is classified as:


NORAD ID: 56888
Int'l Code: 2023-083N
Perigee: 565.3 km
Apogee: 567.2 km
Inclination: 43.0 °
Period: 95.8 minutes
Semi major axis: 6937 km
RCS: Unknown
Launch date: June 12, 2023
Source: United States (US)
Launch site: AIR FORCE EASTERN TEST RANGE (AFETR)
Your satellite tracking list
SKOLTECH-B2
Track 1 satellite(s)




NASA's NSSDC Master Catalog

Two Line Element Set (TLE):
1 56888U 23083N   25199.56566055 -.00000730  00000-0 -38952-4 0  9998
2 56888  43.0038 273.8044 0001404 273.4026  86.6656 15.02532971116455
Source of the keplerian elements: AFSPC